sat.trackr.live / text

‹ back to catalog

CHINASAT 9B

NORAD 49125 · 2021-080A

PAYLOAD ACTIVE UNKNOWN

§ Identity

Operator
Country
PRC
Launch date
2021-09-09
Launch site
XICLF
Launch vehicle
Mass (kg)
RCS (m²)

Purposes: comms

External: N2YO · Heavens-Above · Gunter

§ Orbital elements

Epoch: 2026-05-25T02:30:52.384608Z

Period
1,436.08 min
Inclination
0.0128°
Eccentricity
0.0001715
Mean motion
1.00273169 rev/d
Perigee alt
35,779.0 km
Apogee alt
35,793.4 km
Semi-major
42,164.3 km
B*
0.0000e+0
RAAN
273.4027°
Arg perigee
162.6449°
Mean anomaly
305.7693°
Rev number
1,741

§ Raw data

CHINASAT 9B1 49125U 21080A   26145.10477297 -.00000315  00000+0  00000+0 0  99952 49125   0.0128 273.4027 0001715 162.6449 305.7693  1.00273169 17410

JSON: /api/v1/satellites/49125 · /tle

For live sub-satellite position, see the globe view (requires WebGL).

§ Visibility from observer

Set your observer location to see the next 7 days of passes ≥ 10°. The values pass through the URL so the page stays shareable.

No JS? Fill the form by hand. The geolocation button needs JavaScript.